Location: An Tulaigh
(53.1928°N, 8.1647°W)
Time: 00:44:26
(UTC+00:00)

Cosmos 1726 Rocket - Pass Details

Date: 15 May 2026
Orbit: 555 x 660 km, 82.5° (Epoch: 9 June)

Event Time Altitude Azimuth Distance (km) Brightness Sun altitude
Exits shadow 23:02:43 16° 209° (SSW) 1,511 5.2 -15.4°
Maximum altitude 23:05:51 55° 285° (WNW) 675 3.9 -15.6°
Drops below altitude 10° 23:09:52 10° 4° (N) 1,858 7.1 -15.8°
Sets 23:12:06 0° 9° (N) 2,766 8.0 -15.9°
